THOR AGENA D R/B

Satellite information

Favourite Embed

Satellite Type and Status

ROCKET BODYIN ORBIT

Key statistics

Satellite THOR AGENA D R/B at a glance.

Uptime

22449

Days in orbit

Revolutions

≈ 14.3

Per day

Orbit

SSO

Sun Synchronous Orbit

Inclination

99.1

Latest

Satellite identification and parameters

Extended collection of information and parameters for THOR AGENA D R/B.

Object identification

Identified? True

Debris? False

Object name: THOR AGENA D R/B

International designator: 1964-002A

Object number (NORAD): 733

Object ID (CCSDS): 733

Country: UNITED STATES OF AMERICA (US)

Current information (Y/N): Y

RCS size: LARGE

Orbital parameters

Period: 100.43 minutes

Inclination: 99.1139 deg

SMA: 7157.087 km

Apoapsis: 801.799 km

Periapsis: 756.105 km

RAAN: 181.846 deg

Eccentricy: 0.0031922

Argument of periapsis: 256.7676 deg

Mean anomaly: 102.9945 deg

Mean motion: 14.33832125 rev/day

Mean motion (dot): 0.00000153 rev/day2

B* drag term: 0.00007207 1/REarth

Two-line elements (TLE)

Creation date: July 5, 2025, 10:26 p.m.

Reference frame: TEME

Reference center: EARTH

Epoch: July 5, 2025, 8:33 p.m. UTC

TLE line 0: 0 THOR AGENA D R/B

TLE line 1: 1 733U 64002A 25186.85681973 .00000153 00000-0 72070-4 0 9993

TLE line 2: 2 733 99.1139 181.8460 0031922 256.7676 102.9945 14.33832125203367

Live tracking on map

Real-time ground track for satellite THOR AGENA D R/B.

In-orbit conjunctions

A list of the most updated potential collisions computed for object THOR AGENA D R/B.

Target Orbit TCA Probability of collision Miss distance Type
FENGYUN 1C DEB SSO 2024-09-26 15:22:55 0.0002152727 146.0 (m) DEBRIS
CZ-6A DEB LEO 2024-09-21 06:24:17 0.0003975192 200.0 (m) DEBRIS
SL-8 R/B LEO 2024-08-22 20:38:15 0.0001958788 141.0 (m) ROCKET BODY
FENGYUN 1C DEB SSO 2024-07-28 21:22:00 0.0002089309 265.0 (m) DEBRIS

Associated space launch

The DSAP-1 (Defense Satellite Application Program Block 1) satellites series, also known as P-35, was the first series of military meteorologal satellites of the USA.

THOR AGENA D R/B was lifted into orbit during the mission ‘Thor SLV-2 Agena D | DSAP-1 F6 & F7’, on board a Thor SLV-2 Agena D space rocket.

The launch took place on Jan. 19, 1964, 10:59 a.m. from Space Launch Complex 2W.

For more information about the launch, click the button.

Launch to space Thor SLV-2 Agena D | DSAP-1 F6 & F7
Thor SLV-2 Agena D | DSAP-1 F6 & F7

Agency: N/A

Status: Launch Successful

Launch date: Jan. 19, 1964, 10:59 a.m. UTC

Rocket: Thor SLV-2 Agena D

Launch pad: Space Launch Complex 2W

Location: Vandenberg SFB, CA, USA

...

Latest news about this satellite

There are no fresh news available about this satellite. Check back as we update our databases every day.


Newsletter sign-up

Weekly statistics, charts and insights to help you stay on top of the space industry.